Powrót do katalogu

ATLAS 5 CENTAUR DEB

LostHEO
NORAD 52041·DEBRIS·🇺🇸 United States

Wystrzelony Oct 17, 2018 z Cape Canaveral Space Force Station

Loading…

Następne Przeloty (najbliższe 24 godziny)

TLE

NieaktualneSource: Space-Track

Epoka: Jan 10, 2026, 22:26 UTC

1 52041U 18079GK  26010.93496661 -.00000059  00000-0  00000-0 0  9995
2 52041  12.4280 244.6818 4685401 259.6750  46.1278  2.29473155 32445

Śledź ATLAS 5 CENTAUR DEB w czasie rzeczywistym z AllMySat

Download on the App Store